Location: Pedholt
(56.0260°N, 10.2097°E)
Time: 18:29:38
(UTC+00:00)

A-11 Canister half - Pass Details

Date: 30 July 2021
Orbit: 1515 x 1685 km, 47.2° (Epoch: 20 September)

Event Time Altitude Azimuth Distance (km) Brightness Sun altitude
Rises 00:11:29 0° 283° (WNW) 4,934 11.7 -14.8°
Reaches altitude 10° 00:16:05 10° 266° (W) 3,951 11.0 -14.7°
Maximum altitude 00:21:56 17° 230° (SW) 3,393 10.3 -14.5°
Enters shadow 00:24:23 16° 213° (SSW) 3,492 10.3 -14.5°
Drops below altitude 10° 00:27:46 10° 194° (SSW) 3,931 - -14.3°
Sets 00:32:22 0° 176° (S) 4,897 - -14.2°
